Lid_Strength_Index
3 2 2 2 2 1 2 3 3 3 4 4 4 3 4 4 4 5 5 3 4 6 5 4 4 6 6 7 9 7 7 6 7 10 10 10 11 9 10 10 11 12 13 15 14 15 16 6 7 12 9 7 7 7
2 2 2 2 2 2 3 3 4 4 4 4 4 4 4 4 3 4 5 3 3 5 5 3 3 4 5 5 7 5 7 7 6 8 9 9 10 9 10 13 9 13 10 13 12 13 8 7 7 6 6 7 7 6
2 2 2 2 3 3 3 4 4 4 4 4 4 4 4 4 4 4 6 4 4 6 5 5 5 2 3 4 3 6 5 4 6 4 7 8 10 8 12 11 10 8 7 10 10 9 8 7 6 5 5 6 5 5
2 2 2 3 3 3 4 4 4 4 4 4 4 4 3 4 4 4 6 5 5 6 8 6 2 3 1 3 4 3 4 3 4 4 7 8 9 7 9 9 9 8 7 8 9 8 6 6 5 5 5 4 5 4
3 2 3 3 3 4 4 4 4 4 4 4 4 4 4 4 4 5 5 4 3 6 9 8 5 3 2 2 4 3 3 4 5 7 7 8 7 7 7 7 9 7 8 10 11 7 7 7 5 4 4 4 4 5
3 3 3 3 3 4 4 4 4 4 4 3 4 4 4 4 5 5 5 3 3 4 8 9 4 4 2 3 3 3 3 4 5 6 7 6 5 7 9 10 7 6 5 5 7 5 5 5 4 3 4 4 3 4
4 4 4 4 4 4 4 4 5 4 4 3 4 4 4 4 5 6 7 5 5 5 7 9 8 4 3 3 3 4 3 4 5 6 7 7 7 6 9 11 7 6 5 5 4 5 6 5 5 4 3 3 3 3
4 4 4 4 3 4 4 4 4 4 4 4 4 3 3 4 5 6 4 5 5 6 6 9 9 7 3 6 6 4 5 5 5 6 6 7 7 7 10 7 6 5 5 5 4 4 5 4 4 4 3 3 4 4
4 4 4 4 4 4 3 4 4 4 4 4 3 3 4 5 5 4 2 3 4 6 8 8 10 11 4 5 5 5 5 8 5 8 7 7 9 11 8 7 6 5 6 6 4 4 4 5 4 4 4 4 4 5
4 4 4 5 5 4 4 4 4 4 4 4 4 5 6 4 2 2 4 7 7 7 7 9 6 9 6 6 7 7 6 8 10 8 6 9 10 7 6 5 5 5 4 4 6 6 5 6 5 4 4 4 4 4
4 5 5 5 5 4 4 4 4 4 4 5 5 4 3 2 4 5 7 8 8 9 7 7 7 8 5 9 8 6 8 8 11 10 9 10 10 8 5 5 4 4 4 4 4 4 4 4 4 4 4 4 3 4
5 5 5 5 4 4 4 4 4 5 3 6 6 5 1 5 6 8 9 8 9 9 7 8 7 6 6 5 7 8 9 9 11 7 10 12 9 6 5 5 4 4 4 4 3 4 3 3 3 4 4 4 3 3
5 5 5 4 4 4 4 4 4 4 4 3 5 5 6 7 12 11 12 11 10 7 6 6 8 6 6 6 8 9 10 11 7 11 12 10 7 6 5 4 4 3 3 3 3 3 3 3 3 3 4 3 3 3
5 5 5 5 5 4 4 4 4 4 5 6 7 12 10 10 10 9 9 9 6 6 7 6 7 7 6 8 8 11 9 9 12 14 11 9 7 6 5 4 4 4 4 4 4 3 3 4 3 3 3 3 3 4
5 5 5 5 5 4 4 4 4 4 5 6 6 12 9 6 6 6 5 6 6 5 6 7 7 7 9 9 8 9 12 13 11 12 9 7 6 6 6 5 5 4 4 4 4 4 3 4 4 4 3 3 3 3
5 5 5 4 4 4 4 5 4 4 4 5 6 8 7 8 8 7 6 6 5 5 5 6 7 9 10 10 10 11 11 12 10 9 7 6 6 6 5 5 5 4 4 4 4 3 3 4 4 4 3 3 3 3
6 6 3 4 4 3 4 5 4 5 6 6 7 5 6 6 7 6 5 5 4 5 8 7 10 10 8 11 11 9 10 9 8 7 6 5 6 5 4 4 4 4 4 4 4 4 4 3 3 3 4 3 3 3
6 3 3 3 4 3 4 4 4 5 7 6 7 6 5 5 6 5 4 4 5 6 6 8 7 9 10 10 11 8 7 6 6 6 5 5 4 4 4 4 4 4 4 4 4 4 3 4 4 4 4 3 3 3
5 4 4 3 4 4 4 4 3 7 6 5 5 4 4 4 3 3 4 3 3 4 5 7 9 10 9 7 8 7 6 6 6 6 5 4 4 4 4 4 4 4 4 4 4 4 3 3 3 3 3 3 4 3
4 4 4 4 3 3 5 5 2 5 7 5 4 5 5 5 4 4 4 4 4 6 8 8 8 7 7 6 5 5 5 5 5 6 6 5 4 4 4 4 4 4 4 3 3 5 3 3 3 3 3 3 3 3
4 3 3 3 2 3 4 5 6 5 5 6 5 5 6 5 5 6 6 4 6 7 7 6 6 5 3 4 4 4 4 4 5 5 5 6 4 4 4 3 3 3 4 4 4 4 4 4 3 3 3 3 2 2
2 3 2 2 4 3 4 3 5 4 5 5 6 6 7 8 7 6 4 6 7 6 5 5 5 4 4 4 4 3 3 3 3 4 5 4 4 4 4 4 4 4 4 4 4 4 3 3 2 2 3 3 3 2
3 3 3 3 6 7 8 3 5 5 8 7 7 8 8 8 6 4 7 6 6 4 4 4 3 3 4 3 3 3 3 3 4 4 4 4 3 3 3 3 3 4 4 4 3 3 3 4 4 3 3 3 3 4
5 4 5 6 6 9 4 6 5 6 6 7 8 10 9 8 6 8 9 7 6 4 4 4 4 4 4 4 4 4 3 3 3 3 3 3 4 4 3 3 3 3 3 3 3 3 3 3 4 3 3 3 3 4
8 9 8 12 6 7 8 8 7 8 9 8 10 10 9 7 10 10 9 8 6 5 5 4 5 5 5 5 4 3 2 2 3 4 3 3 4 3 3 3 3 2 2 3 3 3 3 3 3 3 3 3 3 4
11 7 10 7 7 8 8 10 9 9 8 9 9 8 7 9 10 11 8 6 6 5 5 4 4 5 5 4 4 4 3 2 3 4 3 3 3 4 4 4 5 4 2 2 3 3 3 3 3 3 4 4 6 3
11 8 6 4 6 6 7 7 6 8 9 10 9 9 9 11 11 8 6 4 4 3 2 2 3 4 4 3 3 2 2 2 2 3 2 2 2 2 2 4 4 3 2 2 2 2 3 3 3 3 3 2 2 2
7 7 8 6 6 6 8 8 9 10 9 7 7 10 10 10 9 6 5 3 2 2 2 2 2 2 3 3 2 2 2 2 2 1 2 2 1 1 1 1 1 6 1 1 1 2 2 2 2 3 2 3 2 2
7 5 5 7 7 7 7 8 8 7 5 6 9 9 8 6 4 4 3 2 2 2 3 3 3 2 2 2 2 2 2 2 3 5 5 5 4 3 1 1 1 1 1 1 6 5 2 1 1 2 2 2 2 1
6 5 7 7 8 9 7 5 6 5 4 4 4 5 5 4 3 1 2 2 3 3 3 3 2 3 4 3 3 3 2 2 2 3 4 4 4 2 2 2 2 1 1 1 1 2 6 4 4 2 2 2 2 2
5 6 7 7 8 6 5 4 4 4 4 5 5 6 6 5 3 2 2 2 1 2 2 3 2 2 3 3 3 3 3 2 1 1 1 1 1 1 1 1 1 1 1 1 1 1 1 2 2 2 2 2 2 2
5 6 7 8 8 5 4 6 6 6 5 6 6 5 4 5 5 3 2 2 2 3 3 2 3 3 1 1 1 1 4 1 1 1 1 1 1 1 1 1 0 1 1 1 1 1 1 2 2 2 2 2 2 2
6 6 6 7 7 8 6 6 7 7 7 7 6 6 5 5 6 3 0 0 1 2 2 2 1 1 1 1 1 2 3 2 6 8 8 8 8 4 1 0 0 1 1 1 1 1 1 1 1 1 2 2 2 1